User: anonymous   Login
Location: Bothwell
(42.3833°S, 147.0000°E)
Time: 01:17:13
(UTC+10:00)
Language:

POLYITAN 1 - Orbit

View from above orbital plane
View from above orbital plane
View from above satellite
View from above satellite

Ground track
Ground track

The orbit data is extracted from the following two-line orbital elements,

1 40042U 14033AJ  22273.78671859  .00005609  00000-0  57149-3 0  9997
2 40042  97.9765 213.3963 0015862  65.0084 295.2779 14.91017046449345
Epoch (UTC): 30 September 2022 18:52:52
Eccentricity: 0.0015862
inclination: 97.9765°
perigee height: 584 km
apogee height: 606 km
right ascension of ascending node: 213.3963°
argument of perigee: 65.0084°
revolutions per day: 14.91017046
mean anomaly at epoch: 295.2779°
orbit number at epoch: 44934

The dashed part of the orbit path shows where the satellite is in the earth's shadow,  

DLR